TimeCST,TemperatureF,Dew PointF,Humidity,Sea Level PressureIn,VisibilityMPH,Wind Direction,Wind SpeedMPH,Gust SpeedMPH,PrecipitationIn,Events,Conditions,WindDirDegrees,DateUTC
12:16 AM,-11.2,-14.8,84,29.95,10.0,Calm,Calm,-,N/A,,Clear,0,2013-12-18 06:16:00
12:37 AM,-13.0,-16.6,84,29.94,10.0,Calm,Calm,-,N/A,,Clear,0,2013-12-18 06:37:00
12:57 AM,-11.2,-14.8,84,29.93,10.0,Calm,Calm,-,N/A,,Clear,0,2013-12-18 06:57:00
1:16 AM,-11.2,-16.6,77,29.92,10.0,Calm,Calm,-,N/A,,Clear,0,2013-12-18 07:16:00
1:36 AM,-13.0,-16.6,84,29.93,10.0,Calm,Calm,-,N/A,,Clear,0,2013-12-18 07:36:00
1:57 AM,-14.8,-18.4,84,29.92,10.0,Calm,Calm,-,N/A,,Clear,0,2013-12-18 07:57:00
2:16 AM,-14.8,-18.4,84,29.91,10.0,Calm,Calm,-,N/A,,Clear,0,2013-12-18 08:16:00
2:36 AM,-14.8,-18.4,84,29.91,10.0,Calm,Calm,-,N/A,,Clear,0,2013-12-18 08:36:00
2:57 AM,-14.8,-18.4,84,29.90,10.0,Calm,Calm,-,N/A,,Clear,0,2013-12-18 08:57:00
3:16 AM,-14.8,-18.4,84,29.89,10.0,Calm,Calm,-,N/A,,Clear,0,2013-12-18 09:16:00
3:36 AM,-14.8,-18.4,84,29.89,10.0,Calm,Calm,-,N/A,,Clear,0,2013-12-18 09:36:00
3:56 AM,-11.2,-16.6,77,29.88,10.0,Calm,Calm,-,N/A,,Clear,0,2013-12-18 09:56:00
4:16 AM,-11.2,-16.6,77,29.86,10.0,Calm,Calm,-,N/A,,Clear,0,2013-12-18 10:16:00
4:37 AM,-11.2,-16.6,77,29.85,10.0,Calm,Calm,-,N/A,,Clear,0,2013-12-18 10:37:00
4:56 AM,-11.2,-16.6,77,29.84,10.0,Calm,Calm,-,N/A,,Clear,0,2013-12-18 10:56:00
5:17 AM,-11.2,-16.6,77,29.84,10.0,Calm,Calm,-,N/A,,Scattered Clouds,0,2013-12-18 11:17:00
5:37 AM,-11.2,-16.6,77,29.84,10.0,Calm,Calm,-,N/A,,Mostly Cloudy,0,2013-12-18 11:37:00
5:56 AM,-5.8,-9.4,84,-9999,10.0,SSE,3.5,-,N/A,,Overcast,150,2013-12-18 11:56:00
6:17 AM,-2.2,-7.6,78,29.80,10.0,SE,4.6,-,N/A,,Overcast,140,2013-12-18 12:17:00
6:37 AM,-0.4,-5.8,78,29.79,10.0,SE,3.5,-,N/A,,Overcast,130,2013-12-18 12:37:00
6:56 AM,-0.4,-4.0,85,29.78,10.0,Calm,Calm,-,N/A,,Overcast,0,2013-12-18 12:56:00
7:17 AM,1.4,-4.0,78,29.77,10.0,Calm,Calm,-,N/A,,Overcast,0,2013-12-18 13:17:00
7:37 AM,1.4,-2.2,85,29.76,10.0,Calm,Calm,-,N/A,,Overcast,0,2013-12-18 13:37:00
7:56 AM,1.4,-2.2,85,29.75,10.0,Calm,Calm,-,N/A,,Overcast,0,2013-12-18 13:56:00
8:17 AM,3.2,-2.2,78,29.73,10.0,ESE,4.6,-,N/A,,Overcast,120,2013-12-18 14:17:00
8:37 AM,3.2,-2.2,78,29.72,10.0,East,3.5,-,N/A,,Mostly Cloudy,100,2013-12-18 14:37:00
8:56 AM,3.2,-2.2,78,29.72,10.0,SE,3.5,-,N/A,,Mostly Cloudy,130,2013-12-18 14:56:00
9:17 AM,5.0,-2.2,72,29.71,10.0,Calm,Calm,-,N/A,,Scattered Clouds,0,2013-12-18 15:17:00
9:37 AM,5.0,-2.2,72,29.71,10.0,East,3.5,-,N/A,,Mostly Cloudy,90,2013-12-18 15:37:00
9:56 AM,6.8,-0.4,72,29.70,10.0,East,4.6,-,N/A,,Scattered Clouds,100,2013-12-18 15:56:00
10:17 AM,6.8,-0.4,72,29.70,10.0,East,3.5,-,N/A,,Scattered Clouds,100,2013-12-18 16:17:00
10:37 AM,10.4,-0.4,62,29.68,10.0,ESE,6.9,-,N/A,,Scattered Clouds,120,2013-12-18 16:37:00
10:56 AM,10.4,1.4,67,29.66,10.0,ESE,6.9,-,N/A,,Scattered Clouds,110,2013-12-18 16:56:00
11:17 AM,12.2,1.4,62,29.65,10.0,ESE,5.8,-,N/A,,Clear,110,2013-12-18 17:17:00
11:36 AM,15.8,3.2,58,29.64,10.0,SE,3.5,-,N/A,,Clear,130,2013-12-18 17:36:00
11:57 AM,15.8,3.2,58,29.63,10.0,SE,9.2,-,N/A,,Clear,140,2013-12-18 17:57:00
12:17 PM,15.8,5.0,62,29.61,10.0,SE,9.2,-,N/A,,Clear,140,2013-12-18 18:17:00
12:36 PM,17.6,6.8,63,29.60,10.0,SE,8.1,-,N/A,,Clear,140,2013-12-18 18:36:00
12:57 PM,19.4,6.8,58,29.60,10.0,South,8.1,-,N/A,,Clear,180,2013-12-18 18:57:00
1:17 PM,19.4,6.8,58,29.61,10.0,SSW,6.9,-,N/A,,Clear,200,2013-12-18 19:17:00
1:36 PM,19.4,6.8,58,29.60,10.0,South,6.9,-,N/A,,Clear,170,2013-12-18 19:36:00
1:57 PM,19.4,8.6,63,29.59,10.0,South,5.8,-,N/A,,Clear,170,2013-12-18 19:57:00
2:16 PM,19.4,8.6,63,29.58,10.0,South,5.8,-,N/A,,Clear,170,2013-12-18 20:16:00
2:36 PM,19.4,8.6,63,29.58,10.0,SSE,5.8,-,N/A,,Clear,160,2013-12-18 20:36:00
2:57 PM,19.4,8.6,63,29.58,10.0,SSE,5.8,-,N/A,,Clear,160,2013-12-18 20:57:00
3:16 PM,19.4,8.6,63,29.58,10.0,SSE,5.8,-,N/A,,Clear,150,2013-12-18 21:16:00
3:36 PM,19.4,8.6,63,29.58,10.0,Calm,Calm,-,N/A,,Scattered Clouds,0,2013-12-18 21:36:00
3:57 PM,19.4,8.6,63,29.58,10.0,Calm,Calm,-,N/A,,Scattered Clouds,0,2013-12-18 21:57:00
4:17 PM,17.6,10.4,73,29.60,10.0,Calm,Calm,-,N/A,,Mostly Cloudy,0,2013-12-18 22:17:00
4:37 PM,17.6,10.4,73,29.60,10.0,Calm,Calm,-,N/A,,Overcast,0,2013-12-18 22:37:00
4:56 PM,15.8,8.6,73,29.62,10.0,Calm,Calm,-,N/A,,Overcast,0,2013-12-18 22:56:00
5:17 PM,14.0,8.6,79,29.63,10.0,Calm,Calm,-,N/A,,Overcast,0,2013-12-18 23:17:00
5:37 PM,12.2,8.6,85,29.62,10.0,Calm,Calm,-,N/A,,Mostly Cloudy,0,2013-12-18 23:37:00
5:56 PM,12.2,8.6,85,29.63,10.0,Calm,Calm,-,N/A,,Mostly Cloudy,0,2013-12-18 23:56:00
6:17 PM,12.2,8.6,85,29.63,10.0,Calm,Calm,-,N/A,,Overcast,0,2013-12-19 00:17:00
6:36 PM,10.4,6.8,85,29.64,10.0,Calm,Calm,-,N/A,,Overcast,0,2013-12-19 00:36:00
6:56 PM,10.4,6.8,85,29.64,10.0,Calm,Calm,-,N/A,,Overcast,0,2013-12-19 00:56:00
7:17 PM,10.4,6.8,85,29.65,10.0,Calm,Calm,-,N/A,,Overcast,0,2013-12-19 01:17:00
7:36 PM,10.4,6.8,85,29.65,10.0,Calm,Calm,-,N/A,,Overcast,0,2013-12-19 01:36:00
7:57 PM,8.6,6.8,92,29.65,10.0,Calm,Calm,-,N/A,,Scattered Clouds,0,2013-12-19 01:57:00
8:17 PM,6.8,3.2,85,29.67,10.0,Calm,Calm,-,N/A,,Clear,0,2013-12-19 02:17:00
8:36 PM,6.8,3.2,85,29.68,10.0,Calm,Calm,-,N/A,,Mostly Cloudy,0,2013-12-19 02:36:00
8:57 PM,6.8,3.2,85,29.68,10.0,Calm,Calm,-,N/A,,Overcast,0,2013-12-19 02:57:00
9:16 PM,6.8,3.2,85,29.69,10.0,Calm,Calm,-,N/A,,Overcast,0,2013-12-19 03:16:00
9:37 PM,6.8,3.2,85,29.69,10.0,Calm,Calm,-,N/A,,Overcast,0,2013-12-19 03:37:00
9:56 PM,6.8,3.2,85,29.70,10.0,Calm,Calm,-,N/A,,Overcast,0,2013-12-19 03:56:00
10:16 PM,8.6,6.8,92,29.71,10.0,Calm,Calm,-,N/A,,Overcast,0,2013-12-19 04:16:00
10:37 PM,14.0,10.4,86,29.74,10.0,NW,6.9,-,N/A,,Overcast,310,2013-12-19 04:37:00
10:56 PM,14.0,8.6,79,29.75,10.0,NW,12.7,16.1,N/A,,Overcast,310,2013-12-19 04:56:00
11:17 PM,12.2,6.8,79,29.77,10.0,NNW,10.4,20.7,N/A,,Scattered Clouds,330,2013-12-19 05:17:00
11:37 PM,10.4,6.8,85,29.79,10.0,WNW,6.9,-,N/A,,Scattered Clouds,300,2013-12-19 05:37:00
11:56 PM,10.4,6.8,85,29.80,10.0,NW,5.8,-,N/A,,Overcast,310,2013-12-19 05:56:00